Theta_e
306 306 305 305 306 306 306 306 306 306 306 306 306 305 304 304 304 305 305 305 305 306 306 306 306 305 305 305 305 305 305 305 307 306 306 306 306 306 304 304 305 305 305 304 304 306 307 307 308 307 307 310 310 313 311 314 320 320 324 325 326 328 327 324 315 313 316 318 318 314 318 326 325 316 311 311 312 315 315 315 317 311 306 304 304 303 304 308
306 306 306 306 305 306 306 306 307 307 307 306 305 304 304 304 304 304 305 305 305 305 306 306 306 305 304 305 305 305 306 306 308 308 306 306 306 305 305 304 305 305 305 304 304 306 306 308 308 307 309 310 310 311 313 313 314 323 326 323 328 331 327 321 315 314 314 316 320 316 316 320 322 317 311 314 316 314 314 316 315 314 311 305 302 303 305 307
306 306 306 306 306 306 306 306 306 306 307 306 304 303 304 303 305 305 304 304 305 305 305 306 305 305 304 305 305 305 307 307 309 309 306 306 305 304 304 305 306 305 305 304 304 305 306 309 306 307 310 309 311 311 314 313 311 323 323 319 330 332 325 317 312 313 312 314 320 316 313 315 316 313 311 314 318 315 316 317 315 316 317 313 305 301 305 306
305 306 306 306 306 306 306 306 306 306 306 306 305 304 304 304 305 305 304 304 304 305 305 305 305 305 304 304 305 305 307 308 309 308 305 305 304 304 305 305 306 305 305 305 305 305 306 307 305 307 309 310 315 312 313 315 312 317 317 322 330 323 319 315 310 312 312 311 317 316 312 313 313 311 311 313 315 314 315 315 315 318 318 315 306 301 303 304
305 305 305 306 306 306 306 306 306 306 306 306 306 306 306 305 304 305 305 304 304 305 304 305 305 305 304 304 305 305 306 310 310 305 304 305 304 304 305 305 306 306 306 305 306 306 306 305 306 310 310 310 314 312 314 314 311 314 315 321 323 313 312 315 312 311 309 307 311 314 312 312 311 309 311 313 313 313 316 315 315 317 316 314 307 302 302 303
304 304 305 305 306 306 306 306 306 306 306 306 306 306 307 306 305 304 305 304 304 304 304 305 304 305 304 304 306 307 305 308 308 304 305 305 304 305 305 305 306 306 306 306 306 306 307 306 306 311 311 311 311 312 316 311 308 313 315 316 316 311 310 312 312 311 308 307 310 313 311 309 310 310 312 312 311 311 315 319 319 314 309 307 304 302 303 303
305 304 305 305 305 305 305 305 305 305 305 305 306 306 306 306 305 304 305 305 304 304 304 304 304 304 304 304 307 310 308 308 308 305 306 304 304 305 305 306 306 306 306 306 306 306 308 308 307 310 310 311 312 312 315 311 308 310 314 317 313 308 309 310 310 310 308 307 308 309 306 307 311 310 308 310 311 310 310 315 314 306 302 303 305 304 303 303
304 305 305 305 305 305 305 305 304 304 304 304 305 305 306 306 305 305 305 305 305 305 304 304 304 303 304 306 308 312 311 309 307 305 305 304 304 305 305 306 306 307 307 306 307 307 308 308 307 308 308 311 312 312 311 310 313 311 312 318 312 307 310 309 307 308 308 307 305 305 306 308 311 307 305 308 309 307 306 311 312 305 304 306 308 306 303 302
304 305 305 305 305 305 305 304 304 305 304 304 305 304 305 305 305 305 305 305 305 304 304 304 303 304 305 306 305 309 309 306 305 305 304 304 304 305 305 306 306 307 307 307 307 305 307 308 307 307 308 310 310 311 311 312 317 314 312 317 313 309 312 308 305 307 307 307 304 304 307 307 306 304 304 306 304 304 304 308 312 311 311 311 308 306 303 303
304 304 305 305 305 305 305 305 305 304 304 305 305 304 304 304 305 305 305 305 305 305 305 304 304 305 306 306 306 307 307 305 305 305 304 304 304 304 305 306 306 306 306 307 305 305 306 306 307 306 307 310 308 309 311 312 314 313 312 315 314 312 313 308 305 307 305 304 305 304 306 306 305 304 305 305 303 304 306 307 309 310 311 308 305 303 301 302
304 304 305 305 305 305 305 305 305 304 305 304 305 305 305 305 305 305 305 305 305 305 305 304 305 305 306 307 308 307 306 305 305 305 305 305 304 304 305 305 306 306 306 306 305 306 306 305 305 306 308 309 308 310 311 311 311 311 311 313 316 315 312 309 306 306 304 303 305 304 305 305 304 305 305 304 303 305 307 307 308 309 308 304 302 302 299 299
304 304 305 305 305 305 305 305 305 305 305 305 305 305 305 306 306 305 306 305 305 305 305 305 304 305 306 307 309 308 305 305 305 305 305 305 304 304 305 306 306 305 306 305 306 306 306 306 305 306 310 310 311 310 310 311 309 311 309 310 317 317 312 310 307 305 304 304 305 304 306 309 307 306 305 303 303 306 307 305 305 306 307 306 304 302 300 297
304 305 305 305 305 305 305 304 304 304 304 304 305 305 306 306 306 306 307 306 306 305 305 305 305 305 307 310 311 306 305 305 305 305 305 305 305 304 305 306 305 305 306 305 305 306 306 307 306 307 311 313 315 309 310 314 311 311 310 308 313 315 315 310 304 303 303 304 306 305 310 318 313 304 302 302 303 306 307 304 303 302 301 305 304 301 299 296
304 305 304 305 304 304 304 304 304 304 303 304 304 305 306 306 308 309 307 307 307 306 305 305 305 305 308 313 309 304 305 305 305 305 305 305 305 304 305 306 305 305 305 305 305 305 306 307 305 307 308 311 312 306 313 324 318 311 308 313 314 310 320 318 305 304 304 304 305 305 310 318 311 302 300 300 302 306 306 302 299 298 297 299 299 297 297 294
304 304 304 304 304 304 304 304 304 304 304 305 304 306 306 307 311 310 308 307 306 306 305 305 306 307 311 314 308 304 305 304 305 305 304 306 305 305 305 305 305 305 306 306 305 305 305 307 308 309 309 309 311 310 315 323 323 316 307 318 319 310 321 322 305 304 305 304 305 305 311 315 307 300 300 298 299 304 303 298 296 296 296 297 296 295 295 294
303 304 304 304 304 304 304 305 305 305 305 305 305 307 307 310 313 309 307 307 306 306 304 307 309 308 311 311 306 304 305 305 306 304 304 305 304 305 305 304 305 305 306 305 305 305 305 310 310 309 310 308 314 324 321 316 324 322 311 314 319 312 317 317 307 306 306 305 305 305 312 315 305 299 298 296 297 300 299 296 296 296 296 296 296 295 295 295
304 304 304 305 305 305 305 305 305 306 306 305 306 306 308 313 312 307 307 307 307 306 305 308 309 307 307 307 305 305 305 305 304 304 304 304 305 305 304 305 304 304 306 305 305 305 304 309 307 307 316 313 315 325 319 315 324 323 313 312 316 313 312 315 314 309 306 307 306 305 308 309 302 298 298 296 296 297 296 296 297 296 296 296 295 295 295 294
304 305 305 305 306 305 305 305 306 306 305 306 306 307 310 312 309 307 309 309 309 307 307 309 308 308 309 307 306 305 304 304 304 304 304 305 305 304 305 305 303 303 308 307 305 306 305 310 311 312 319 314 314 320 314 320 326 317 313 314 317 315 310 314 316 310 306 307 307 306 307 304 299 298 298 296 296 297 296 296 296 296 296 296 295 295 295 294
305 306 305 306 306 305 306 305 305 306 306 306 305 307 310 311 311 308 307 307 309 309 307 309 310 311 310 307 304 304 304 303 304 304 304 306 304 305 305 303 305 306 308 310 307 308 308 312 315 312 315 314 316 319 315 322 322 313 315 315 314 315 312 313 314 311 306 307 309 306 303 300 298 298 297 297 296 296 297 296 296 296 296 295 295 295 295 295
305 305 305 306 305 305 306 305 305 306 307 307 306 308 310 313 315 313 313 311 308 307 309 312 311 308 307 305 303 304 305 303 304 304 304 304 304 305 304 304 313 312 309 311 308 309 309 310 314 313 318 320 320 319 314 315 314 310 312 313 311 311 310 310 311 311 308 308 308 302 299 299 298 298 297 297 297 296 297 296 296 296 295 295 295 295 295 294
305 305 305 306 305 305 305 304 306 306 307 307 306 306 308 309 309 309 312 310 304 302 308 311 307 305 304 303 303 303 304 305 303 304 304 304 304 305 305 308 313 311 311 312 311 315 313 312 318 317 317 315 315 317 312 310 311 310 310 311 310 310 309 308 308 311 310 308 305 299 299 299 297 297 296 296 297 296 296 296 296 295 295 295 294 295 295 294
305 305 305 305 305 305 304 305 307 307 308 307 306 308 308 307 307 307 306 307 307 303 306 308 305 307 305 301 303 302 303 308 306 305 304 304 306 306 308 311 311 311 314 311 312 319 316 315 318 313 310 310 310 313 312 310 310 310 309 308 310 311 311 310 308 310 311 309 305 299 299 299 297 297 296 296 296 296 296 296 296 295 295 294 294 294 294 294
305 305 305 305 304 304 304 307 308 308 309 307 306 307 307 307 308 308 305 307 312 309 309 311 307 309 309 303 303 303 305 308 307 307 304 303 307 307 307 310 310 311 313 311 312 314 314 316 313 308 309 309 310 311 310 309 309 310 309 308 312 311 310 312 311 308 308 308 305 300 299 300 299 298 297 297 296 296 296 296 296 296 295 295 295 295 294 293
304 304 305 304 304 304 305 308 308 309 310 308 306 306 306 307 307 308 308 307 311 311 310 309 306 308 309 304 302 304 307 307 306 306 303 303 306 306 306 309 310 311 311 312 312 312 314 313 306 306 310 308 308 310 310 308 311 317 314 309 313 311 307 310 310 308 307 304 303 302 303 301 300 299 297 297 296 296 296 295 296 296 296 296 295 294 293 292
304 304 304 304 304 304 306 309 308 310 313 309 306 307 306 307 307 308 309 307 309 314 311 307 307 307 305 303 303 305 307 307 306 304 302 303 305 305 305 307 308 310 314 313 311 312 314 309 303 308 312 311 309 309 311 310 310 318 316 309 312 311 307 307 308 310 310 304 302 304 307 303 300 299 298 297 296 296 296 296 296 296 295 294 293 292 292 291
302 303 304 303 304 304 306 309 307 310 315 311 306 307 306 306 307 307 312 317 313 313 313 309 307 306 304 303 304 305 307 308 305 302 302 302 304 304 304 308 308 308 313 313 310 309 308 306 306 311 314 312 311 309 310 310 310 313 311 307 309 309 307 306 305 309 312 309 303 303 306 305 300 299 297 296 296 296 296 296 295 294 293 292 291 290 290 290
302 303 303 302 304 305 306 307 307 309 311 309 306 306 305 306 306 306 313 322 315 309 311 311 307 305 305 303 303 306 306 306 304 302 302 302 303 304 305 312 311 307 310 310 310 310 306 307 309 313 315 310 309 309 308 309 313 312 307 306 308 306 305 306 304 305 309 308 305 304 306 307 301 299 298 296 297 297 296 296 294 293 292 290 290 289 289 289
302 302 302 303 305 305 307 307 307 307 306 306 305 306 306 305 306 310 312 310 308 308 308 309 307 304 307 304 305 310 309 306 306 304 302 301 303 306 307 310 309 310 309 306 311 313 306 308 309 309 312 310 308 308 306 307 309 309 306 305 305 304 304 306 304 307 307 305 308 306 304 307 303 299 299 298 297 296 296 295 294 292 291 290 289 289 288 288
302 303 302 304 305 305 308 307 304 304 304 305 305 305 306 304 306 312 312 305 306 308 307 309 307 306 311 310 310 313 309 307 308 305 303 303 303 304 305 307 309 310 307 306 314 313 305 306 306 304 306 308 308 306 306 306 304 304 303 304 306 305 305 305 305 308 307 307 311 308 303 307 304 298 299 298 297 297 296 294 293 291 290 289 289 288 288 288
302 303 302 304 305 304 308 308 303 302 304 304 304 305 305 308 315 316 308 305 306 307 308 308 306 308 314 317 316 313 308 309 311 308 307 307 306 305 303 305 309 311 310 310 312 310 307 305 303 304 304 304 304 303 304 304 302 302 304 306 308 306 306 308 309 307 307 311 313 307 304 307 305 300 300 298 297 298 296 293 292 291 290 289 289 288 288 288
302 303 302 304 304 303 306 307 304 303 304 304 304 307 308 315 327 323 305 304 307 309 310 308 308 312 313 313 315 312 310 313 313 311 311 310 310 310 306 305 310 317 321 317 311 310 309 306 304 305 304 302 302 302 302 303 303 305 307 306 305 305 304 307 311 307 306 313 311 303 302 305 305 301 297 295 295 296 295 292 291 291 290 289 289 288 288 288
303 302 303 305 304 303 304 304 304 304 304 305 307 312 318 317 318 315 307 307 307 307 308 306 307 312 309 307 309 307 308 310 310 310 309 310 309 306 305 304 304 314 322 315 310 312 312 309 305 304 303 301 302 304 304 305 307 306 308 309 308 310 307 308 313 308 307 312 305 299 301 303 301 296 293 293 292 293 293 291 290 290 290 289 288 288 288 287
302 303 305 305 305 304 303 303 305 304 304 309 311 317 327 322 307 304 309 311 305 304 307 306 308 309 307 307 308 305 304 305 307 307 304 308 312 305 303 303 301 306 310 307 306 309 312 310 306 304 304 300 301 304 306 305 305 304 306 309 311 312 310 311 314 305 304 308 301 298 302 303 299 294 292 291 291 292 292 291 290 290 289 290 288 287 287 287
303 306 307 307 306 304 303 304 305 304 305 311 314 315 317 314 306 303 307 311 308 306 307 307 309 309 306 307 307 304 304 303 304 306 308 312 314 309 307 306 304 305 305 305 304 304 308 309 305 303 303 302 302 303 302 303 304 303 304 305 307 311 309 310 313 308 305 308 303 301 303 302 299 295 292 291 290 291 291 290 290 289 289 289 287 286 286 286
305 307 307 307 306 303 303 303 304 304 307 314 324 324 313 308 307 306 307 309 308 307 306 305 308 309 309 311 308 302 301 303 304 306 310 312 309 307 307 304 304 304 304 305 304 302 305 305 304 302 300 301 304 302 299 301 302 301 301 303 306 309 308 306 307 306 305 308 306 304 301 297 296 294 291 291 290 289 290 290 289 289 288 288 286 285 286 286
306 308 307 305 304 304 303 302 304 305 309 322 333 325 313 307 304 305 307 305 304 304 306 309 310 308 311 314 311 305 300 301 305 304 304 306 305 304 305 303 302 302 301 302 303 303 304 305 305 304 301 300 300 300 300 301 303 302 301 304 303 301 305 306 302 300 302 305 304 301 298 295 294 294 291 289 289 288 288 288 288 288 287 287 285 285 285 285
307 308 307 304 305 306 303 302 304 306 314 331 331 314 307 305 301 305 308 303 301 302 305 307 306 304 306 309 312 311 304 300 303 303 302 304 303 302 305 304 301 300 300 300 302 302 302 305 306 303 303 301 297 298 301 299 302 303 303 305 301 298 303 306 303 304 305 306 305 301 298 297 297 297 292 289 289 288 287 288 288 287 287 286 284 284 285 284
308 309 308 305 306 305 304 306 306 309 322 332 323 311 308 306 303 304 306 303 301 303 305 305 303 302 304 305 309 309 305 303 304 303 302 303 303 302 304 304 301 301 301 300 302 302 300 304 305 301 301 302 298 299 303 300 299 300 300 301 300 302 308 305 304 307 306 306 307 302 297 297 298 297 293 289 288 287 287 287 287 287 286 285 283 283 284 283
307 313 313 307 306 306 307 308 305 313 329 325 315 310 307 308 306 303 303 303 301 302 304 304 301 303 305 304 306 306 303 303 303 303 302 302 303 302 301 301 301 303 301 299 301 303 300 302 305 302 299 300 300 302 304 304 302 301 302 301 300 304 308 304 302 305 305 307 307 302 299 298 295 293 291 288 287 286 286 286 286 286 286 284 283 283 284 282
305 315 316 306 306 305 305 307 307 318 325 312 310 311 306 306 309 305 303 303 302 301 302 303 301 303 306 303 302 303 303 304 303 303 303 301 302 302 300 299 301 304 301 298 300 302 301 301 304 305 301 299 301 301 300 302 301 303 306 304 301 303 305 302 300 300 303 307 307 304 302 298 292 290 289 287 286 286 285 285 285 286 285 283 282 283 283 282
306 316 315 307 305 303 307 311 309 315 317 305 305 310 307 306 307 306 303 302 303 301 299 302 302 301 304 305 302 301 304 307 305 303 303 301 301 301 299 296 299 302 300 300 301 300 300 301 303 305 304 302 302 298 297 299 298 300 304 301 299 302 303 304 302 300 301 304 304 304 304 297 290 288 287 286 286 285 285 285 285 285 285 283 282 282 282 281
310 314 309 306 303 303 312 316 307 308 314 305 301 305 307 307 304 304 304 301 302 303 301 303 303 302 304 304 302 302 304 306 305 303 302 301 300 300 298 295 296 297 298 301 301 298 299 300 302 304 302 300 299 296 296 298 297 299 300 298 299 303 303 305 307 303 301 301 300 301 304 296 288 286 286 285 286 285 284 284 284 284 284 282 281 282 281 280
316 312 306 304 303 305 310 311 309 311 311 303 300 302 305 307 305 303 304 303 302 302 303 304 303 301 302 301 302 302 302 303 303 302 302 303 301 299 298 296 296 296 298 300 299 297 297 299 301 304 304 302 299 296 296 298 298 300 299 297 297 299 299 302 304 301 301 302 300 301 303 295 287 286 285 285 285 284 284 284 283 284 283 281 282 281 280 280
316 310 308 304 300 307 310 304 307 312 309 305 305 303 303 305 306 305 304 305 303 301 302 305 302 300 300 301 302 302 301 301 301 300 299 301 301 298 297 297 296 298 298 297 299 298 297 299 301 304 308 308 306 304 304 303 300 299 298 294 294 296 298 298 298 299 300 298 296 300 302 295 288 286 285 284 284 284 284 283 283 283 282 281 281 280 279 278
310 305 308 307 300 306 311 309 312 316 311 308 304 302 304 304 304 304 304 305 303 300 301 302 300 300 301 301 302 303 303 301 300 301 300 300 300 299 299 297 296 299 299 297 298 298 297 299 300 301 304 306 306 305 304 302 298 296 294 292 293 296 297 297 298 302 302 296 294 298 299 293 288 286 285 284 284 283 283 283 282 282 281 281 280 279 278 277
309 304 311 318 310 304 304 305 312 317 310 307 303 301 304 305 303 302 303 303 302 300 301 301 300 301 302 302 304 307 306 301 300 302 302 302 301 298 298 298 298 300 300 298 297 297 299 299 298 302 304 303 302 300 298 299 299 297 294 292 292 293 293 296 300 301 297 295 296 295 293 292 289 286 285 284 283 283 282 282 281 281 280 280 279 278 276 275
312 307 306 313 313 311 311 309 311 311 304 304 303 300 303 307 304 302 302 301 301 300 301 302 302 302 302 302 303 304 305 302 301 301 300 301 301 299 297 298 299 299 299 298 296 297 300 299 297 300 301 297 297 295 293 295 294 293 292 292 292 292 293 296 298 294 292 295 298 292 289 291 290 285 284 283 283 282 282 281 281 280 279 278 277 276 275 274
307 305 301 301 304 308 309 306 309 310 305 304 303 301 305 308 305 303 302 300 301 301 301 302 303 302 302 302 300 301 304 304 302 301 299 298 300 302 300 298 298 298 298 298 297 297 300 299 296 298 297 293 292 291 290 291 290 289 290 290 290 292 293 294 292 290 290 294 295 291 289 290 288 284 283 283 282 282 281 280 280 279 278 277 275 274 274 273
304 305 300 299 303 305 302 300 306 312 308 306 306 303 304 306 304 302 300 300 304 302 300 301 303 303 303 302 300 302 304 303 302 302 300 299 300 301 300 299 298 298 298 299 298 296 298 300 298 298 297 293 291 291 290 290 290 289 289 289 289 290 291 291 291 290 290 291 290 288 288 288 285 283 282 282 282 281 280 279 279 278 277 275 274 274 273 273
304 305 302 304 308 306 304 304 307 311 308 305 305 302 303 306 304 301 300 300 301 301 300 302 301 302 304 303 302 302 301 300 300 299 298 299 300 299 298 298 297 298 300 300 298 296 296 298 297 297 298 295 292 291 290 290 291 290 289 289 288 288 289 290 291 290 290 291 289 287 287 287 285 282 282 282 281 280 279 279 278 277 276 274 274 273 273 273
301 301 303 313 312 304 305 306 305 310 309 304 303 302 303 304 302 302 302 300 300 301 301 301 301 302 303 303 303 303 300 298 299 297 297 298 298 297 297 296 296 298 300 299 298 299 299 299 299 300 301 298 293 292 291 289 291 293 291 289 288 289 288 289 289 289 288 289 289 288 288 287 284 282 281 281 280 279 278 278 277 276 274 274 273 273 272 272
303 300 303 316 313 303 305 306 305 309 305 300 301 302 302 303 302 302 301 300 302 303 300 299 300 302 303 304 303 300 298 298 297 296 296 296 296 296 297 296 295 296 298 298 298 297 298 300 300 300 302 300 294 292 291 291 295 297 292 288 288 288 287 287 288 287 286 287 288 288 287 284 281 281 280 279 279 278 277 277 276 275 273 273 273 272 272 272
Wind_Speed
7 6 5 5 5 5 5 5 5 5 5 6 7 7 8 9 9 9 9 9 9 8 7 9 10 12 14 15 14 11 10 10 8 4 2 3 5 7 9 10 10 11 10 9 9 6 6 6 9 15 7 3 1 1 0 1 2 2 2 2 3 4 4 5 7 6 4 2 4 5 7 9 5 3 1 1 1 2 3 3 3 3 2 1 2 1 11 27
8 7 6 5 5 5 5 5 5 5 5 6 6 5 6 9 10 9 9 8 8 8 8 9 10 11 14 14 11 8 8 8 6 4 2 3 5 8 8 9 10 10 8 8 7 6 5 5 8 11 6 1 2 1 1 1 2 2 3 2 5 5 5 6 7 6 4 3 6 5 5 8 7 4 3 3 4 3 4 6 3 5 4 2 3 9 20 27
9 8 7 6 6 6 6 6 6 6 6 6 6 5 6 9 9 9 8 7 6 6 7 8 9 11 14 14 9 7 9 6 3 2 1 3 6 7 6 8 9 7 7 6 6 5 2 3 5 5 4 2 2 1 1 1 1 2 3 2 6 6 5 5 6 7 5 4 5 4 4 5 6 3 3 4 4 3 7 7 3 7 10 3 5 12 21 24
9 9 8 7 7 7 7 7 7 7 7 7 6 7 8 9 8 8 9 7 6 5 6 7 9 11 13 14 9 7 7 4 2 2 0 5 6 5 5 7 7 6 6 5 5 4 2 2 2 4 3 2 4 2 1 2 1 1 3 5 6 4 4 6 7 7 5 3 5 4 4 3 5 3 2 4 3 6 8 9 8 11 12 8 6 10 17 19
9 8 8 8 7 8 8 8 8 7 7 7 7 8 8 9 8 9 9 8 6 6 7 8 10 11 13 14 9 7 5 4 2 2 2 6 6 4 4 6 6 6 6 5 4 1 1 3 5 5 4 1 3 3 3 3 2 2 3 6 5 5 3 6 5 5 3 3 3 4 4 4 2 2 4 8 6 7 6 8 11 12 10 9 10 12 14 14
8 8 7 7 7 7 8 8 8 8 8 8 8 8 8 8 8 9 8 8 8 8 8 9 10 11 12 13 9 4 2 1 3 1 4 6 5 4 5 7 6 6 6 4 3 1 2 4 5 3 3 1 1 1 5 3 3 2 4 3 3 4 4 4 2 4 4 5 4 4 4 2 2 3 4 8 11 9 5 5 8 9 6 10 13 13 12 12
8 8 8 8 7 7 8 8 8 8 8 8 8 8 8 8 8 8 7 8 9 10 10 9 10 11 11 11 6 2 2 3 3 2 6 5 4 4 5 6 5 6 5 2 1 2 3 5 2 3 3 2 2 3 5 4 3 2 4 5 3 3 5 3 1 2 5 5 5 3 1 2 4 5 0 5 13 9 4 1 2 3 4 12 12 12 12 13
9 9 8 8 8 8 8 8 9 9 9 9 9 9 8 8 8 7 6 7 10 12 11 9 9 10 11 8 2 3 2 3 2 3 6 3 3 4 5 4 4 5 1 1 1 3 3 3 1 3 3 1 3 2 3 3 3 2 5 4 2 2 5 5 2 1 3 4 2 1 1 5 6 3 1 8 11 7 6 2 4 4 7 9 9 11 10 11
9 8 8 8 7 8 8 8 9 9 10 10 10 10 9 9 9 8 6 7 10 12 13 11 9 9 9 5 3 3 3 2 2 5 6 4 3 3 4 3 3 3 2 2 1 5 2 2 3 3 2 2 4 2 2 1 2 4 4 3 3 4 6 4 1 2 3 2 1 2 5 6 3 2 4 8 6 5 3 1 3 6 6 6 7 10 9 9
8 8 8 8 7 8 8 8 9 10 10 11 11 10 10 10 9 9 9 10 11 12 14 12 9 8 7 3 5 2 3 1 4 6 6 6 4 3 3 2 3 3 2 2 2 4 2 4 4 4 4 2 3 2 1 3 3 3 2 3 4 5 6 1 3 4 2 2 3 5 6 5 4 2 3 5 6 6 6 5 2 4 3 2 2 3 5 5
8 8 8 7 7 8 8 9 10 11 12 12 12 11 11 11 11 12 12 13 13 14 14 11 9 8 5 3 4 2 3 3 5 5 7 8 6 4 3 1 3 4 2 2 2 2 1 5 6 5 1 2 2 0 1 4 3 1 1 5 6 5 6 3 4 5 1 2 5 7 4 4 3 1 2 7 8 7 7 7 6 4 3 3 4 4 3 3
8 8 7 8 9 10 11 12 12 13 13 13 13 12 13 13 14 14 14 15 15 14 13 11 8 6 4 3 3 5 4 4 4 5 8 10 8 5 3 2 1 3 3 2 1 0 0 3 6 4 3 3 2 1 2 3 2 0 3 4 8 7 7 4 3 4 4 2 4 5 3 5 3 1 6 10 8 8 9 8 8 6 5 5 6 6 6 7
9 8 9 10 11 12 13 13 14 14 14 13 13 13 13 14 14 15 16 16 15 13 12 10 8 5 3 1 3 4 4 4 3 5 9 10 8 5 3 3 2 3 3 2 3 1 1 3 5 5 3 4 1 1 2 2 1 1 3 2 6 8 6 5 2 1 5 2 2 3 2 6 4 2 8 10 8 10 10 9 9 7 6 6 7 7 7 10
9 9 10 12 12 13 14 14 14 14 14 13 13 13 13 13 14 14 14 12 11 11 10 8 7 3 2 3 4 2 3 4 4 7 10 10 9 3 4 3 3 4 4 4 4 2 2 2 4 2 1 3 1 1 4 5 3 1 2 2 3 3 5 6 2 4 5 1 2 4 1 7 3 5 8 9 8 9 10 10 10 8 8 8 8 9 9 11
10 11 12 12 13 14 15 15 15 15 13 12 12 12 12 13 13 11 9 7 6 7 7 6 4 0 2 3 3 2 4 4 4 8 10 10 10 4 3 5 5 4 4 5 3 2 1 2 4 2 1 2 3 3 3 5 4 3 1 3 3 1 5 8 3 4 3 1 4 5 2 6 2 7 11 11 9 9 11 10 10 10 10 10 9 10 10 11
11 12 12 13 14 15 16 16 16 15 12 12 13 12 13 12 9 6 4 3 2 3 3 2 1 3 2 3 2 2 4 4 6 10 9 9 9 6 8 9 5 2 3 3 2 2 1 4 3 1 1 1 4 4 3 4 4 3 1 3 3 2 3 7 3 2 2 2 3 3 2 4 4 9 13 13 10 11 13 11 12 12 11 11 9 10 10 11
12 13 13 14 14 16 16 17 17 15 12 13 13 13 13 10 5 2 1 1 0 1 1 1 2 2 1 2 2 3 4 5 8 11 9 7 7 8 10 6 3 3 2 1 2 2 1 3 1 1 2 2 2 4 3 3 4 3 1 2 4 2 2 4 3 5 6 4 1 3 0 2 8 12 14 15 11 14 14 11 13 11 11 11 9 10 11 11
13 13 14 14 15 16 17 17 18 14 12 13 14 14 11 5 2 1 1 2 1 0 1 0 2 2 2 2 2 4 7 10 12 10 6 5 7 9 7 3 3 5 4 4 2 1 1 2 2 0 3 3 2 5 2 4 3 2 3 2 3 3 3 4 3 3 5 3 2 4 3 6 11 12 13 14 11 15 13 10 11 11 11 10 10 11 10 12
14 14 15 15 16 16 17 18 17 13 12 13 13 12 6 2 2 2 2 3 1 0 0 2 1 1 3 3 3 7 11 11 10 6 3 6 10 8 3 1 3 3 3 1 1 1 1 2 2 1 1 2 2 5 7 8 6 5 4 4 4 4 4 5 4 4 1 3 5 6 5 7 11 11 11 11 10 14 11 11 10 10 10 10 10 10 10 12
14 14 15 16 16 16 17 18 16 12 12 13 12 9 3 2 3 2 4 4 1 2 0 2 2 1 3 4 6 11 11 6 3 1 4 11 10 4 2 3 5 5 2 1 2 1 3 1 3 5 6 7 7 7 6 5 5 3 3 3 4 5 5 5 2 5 1 4 5 6 9 9 9 10 10 7 10 13 11 12 11 9 10 9 10 10 10 10
15 15 15 16 17 17 17 17 14 10 10 11 9 4 1 1 1 3 4 4 3 2 1 3 2 2 5 4 6 8 5 2 2 2 6 11 6 2 2 3 5 3 2 1 2 2 4 1 6 7 8 6 5 5 4 4 4 2 3 3 4 4 5 4 0 5 2 4 2 6 12 10 8 8 8 8 11 11 8 10 10 10 10 9 11 11 9 8
15 16 16 16 17 17 17 16 11 7 8 8 5 5 4 3 3 1 0 2 5 1 1 4 1 3 5 3 4 4 2 3 4 3 8 11 6 2 3 3 4 2 3 2 1 5 3 4 7 6 4 3 4 4 5 3 3 3 2 1 3 3 3 4 2 5 4 4 2 6 12 8 6 8 9 10 10 7 6 8 8 9 10 9 10 10 9 9
16 16 16 17 17 17 17 13 7 7 8 6 5 6 4 4 4 2 3 1 5 3 1 2 1 3 5 2 2 4 3 2 2 5 9 10 4 2 0 2 2 1 3 1 3 1 2 5 5 3 3 5 4 4 6 3 1 2 3 2 3 3 1 3 3 3 4 3 5 9 10 5 5 7 9 9 7 6 7 8 7 7 8 8 7 8 9 11
16 17 17 17 17 16 16 10 5 8 8 6 7 6 5 4 4 3 2 2 3 4 1 1 1 1 2 2 3 3 1 1 2 4 8 7 1 1 1 1 2 0 3 1 5 4 5 5 2 2 3 4 2 2 4 3 2 3 4 5 4 3 2 3 2 2 3 3 5 9 7 4 4 6 6 6 6 7 6 7 9 7 6 7 7 8 10 11
16 16 16 17 16 16 14 6 4 8 5 4 5 4 4 3 3 3 2 2 2 4 2 1 1 0 2 2 3 1 1 1 2 4 6 5 0 1 1 1 1 1 4 1 3 3 6 4 1 2 4 4 3 1 2 5 1 4 4 6 6 4 3 2 2 3 4 1 3 4 2 2 3 5 4 4 5 6 5 6 8 7 7 8 9 10 10 10
16 16 16 17 16 15 10 2 4 8 3 2 3 1 2 2 2 3 2 4 1 3 3 1 1 1 3 3 3 1 2 2 2 2 4 4 1 1 0 1 1 0 3 2 1 2 3 3 3 3 3 5 3 2 4 5 4 2 3 4 6 6 4 2 2 3 2 2 2 2 3 3 1 3 3 3 5 6 5 6 7 7 8 9 10 10 9 9
16 16 15 15 15 14 7 1 5 5 1 2 3 1 1 2 1 2 2 5 2 1 1 2 0 2 2 4 3 2 0 4 2 2 3 3 3 1 1 3 1 1 1 1 2 2 1 3 5 4 5 5 2 2 3 6 6 2 3 3 5 3 1 3 4 3 2 2 2 1 3 4 2 2 0 1 5 6 5 7 8 8 8 9 10 9 9 9
16 15 15 14 13 11 6 2 4 3 1 3 3 2 1 2 1 1 4 3 2 0 1 2 1 1 3 5 5 3 2 4 2 1 3 4 3 2 2 2 4 2 2 2 3 4 1 2 2 3 4 2 2 3 3 6 2 4 4 3 1 1 2 4 4 2 0 1 3 3 3 4 2 4 2 1 5 5 5 7 8 8 8 9 9 9 9 9
16 15 15 13 9 8 5 3 4 3 2 3 2 1 1 1 1 3 4 1 2 1 1 1 1 2 5 6 5 3 3 3 1 4 4 4 3 3 1 2 4 2 2 2 4 4 0 1 1 2 1 2 4 3 4 5 1 2 5 3 3 4 2 3 4 3 2 1 3 4 2 4 2 4 3 2 3 4 4 6 6 6 7 7 9 10 9 8
16 14 14 12 8 7 3 2 6 4 2 2 2 1 1 2 4 5 2 1 1 2 1 1 1 3 7 7 5 5 4 3 3 4 4 3 5 6 2 1 4 4 2 3 1 3 3 2 1 2 1 3 2 1 3 4 2 1 4 3 4 4 4 3 2 3 3 1 5 4 1 5 3 3 3 1 1 4 5 5 5 5 7 7 8 9 8 7
15 14 13 10 6 7 4 2 6 5 3 3 1 1 2 2 5 6 0 2 1 2 2 3 3 4 7 5 3 5 5 4 5 5 5 4 6 7 4 2 4 4 4 5 2 4 4 3 1 1 1 0 1 1 0 1 2 2 3 3 3 3 3 3 4 3 2 3 5 3 1 6 3 1 1 2 3 4 7 6 5 5 6 6 7 7 6 6
15 13 11 7 4 7 6 4 6 6 5 2 1 3 4 2 3 1 2 4 2 2 2 2 3 4 5 3 2 4 4 4 4 5 3 3 4 4 4 2 2 4 4 3 3 5 2 1 2 3 1 1 2 1 2 4 5 4 3 4 2 3 3 2 3 1 2 4 1 1 2 5 3 2 4 5 6 8 7 6 5 5 5 6 7 8 6 6
14 11 7 4 3 7 9 7 6 7 5 0 2 4 6 4 1 2 3 3 2 2 1 1 3 3 3 3 3 4 3 2 4 4 1 1 4 2 2 2 1 2 2 2 2 5 3 4 4 3 1 1 2 1 2 2 3 3 1 3 2 2 2 3 3 1 3 2 1 1 3 3 3 2 4 6 6 6 7 6 5 6 6 6 7 7 6 6
12 8 4 4 5 8 10 8 7 7 4 2 3 4 4 1 2 1 2 3 2 3 2 1 4 4 2 2 3 4 2 2 4 5 3 3 4 3 4 5 4 3 1 1 1 1 2 4 3 1 1 2 2 1 2 1 1 2 2 4 2 3 3 3 4 2 3 2 2 3 2 2 4 3 3 5 5 4 5 4 5 5 5 5 6 7 6 6
10 6 6 6 7 9 10 8 7 7 2 2 5 5 3 2 3 1 2 4 2 4 3 1 2 4 3 3 3 2 2 2 4 5 4 3 2 1 3 4 5 3 2 2 2 0 0 4 4 2 2 1 2 1 2 3 1 1 2 3 1 3 4 1 3 4 3 1 3 2 2 1 2 4 2 3 5 5 5 4 5 5 5 5 6 9 8 6
6 5 6 7 9 12 12 8 8 6 1 4 6 4 2 3 2 2 2 2 1 2 5 5 4 4 4 4 4 4 2 2 3 3 3 2 1 1 2 2 2 4 3 1 1 1 1 4 5 3 2 1 1 2 1 2 0 0 1 0 2 3 5 3 1 1 3 1 2 1 4 2 2 3 1 3 5 7 6 6 6 6 6 8 9 10 8 7
3 4 4 7 11 15 13 9 8 5 3 6 6 1 3 2 1 2 1 1 1 0 3 3 2 2 2 3 4 5 4 2 2 3 2 1 1 1 3 2 1 2 1 1 2 1 1 4 5 2 0 1 1 1 3 2 2 2 0 3 2 1 4 4 0 3 4 0 3 1 4 4 3 3 1 5 7 8 8 8 8 8 8 9 10 10 7 7
2 3 2 7 14 17 14 9 7 3 4 6 4 1 1 0 0 1 1 0 1 1 4 1 2 1 0 1 3 5 4 3 3 3 2 1 1 2 2 3 1 1 2 2 2 1 2 3 6 1 2 3 3 2 3 4 1 2 2 2 1 1 0 1 1 0 1 2 3 3 1 4 3 2 1 6 7 7 9 8 8 9 8 8 9 10 6 6
3 2 1 7 15 18 14 8 4 4 6 5 1 1 0 1 1 1 1 0 1 1 2 1 1 2 0 1 2 4 3 3 3 3 2 1 2 2 3 1 2 1 3 1 1 2 1 0 5 3 2 3 4 3 2 4 4 3 1 2 2 3 3 1 1 2 1 2 2 2 1 2 1 1 3 5 5 6 8 7 8 8 7 8 9 8 5 5
3 2 1 7 16 18 11 6 5 6 6 3 3 2 1 1 2 2 1 0 0 1 0 1 0 2 2 1 0 2 2 1 1 2 1 1 2 1 2 1 2 4 5 2 2 1 2 1 3 5 3 3 2 2 0 1 3 3 3 3 3 1 0 0 1 1 1 1 2 1 2 2 1 3 5 6 4 5 6 6 6 6 5 7 9 7 4 4
3 3 2 9 19 16 7 7 6 4 3 2 1 0 1 1 1 3 2 1 1 0 1 2 2 0 1 2 1 1 1 2 1 0 1 1 2 1 1 2 0 4 5 3 2 2 1 1 2 4 4 2 3 3 1 2 1 1 1 2 1 2 1 1 2 2 1 1 3 2 2 2 2 3 4 5 3 4 5 6 6 6 5 7 8 5 3 4
5 3 3 12 20 11 4 6 3 2 4 2 1 0 1 2 1 2 2 1 1 0 1 2 2 1 1 1 1 1 1 2 1 0 1 1 1 0 1 1 1 1 1 1 2 1 0 2 0 4 4 4 6 3 0 1 3 4 3 2 1 1 3 4 2 3 2 1 1 2 1 2 1 3 4 4 2 2 5 6 7 7 5 7 7 4 3 4
3 1 3 15 17 3 7 5 3 3 3 1 0 0 1 1 1 1 2 2 1 1 2 1 0 0 0 1 0 0 1 1 2 1 1 1 1 1 1 1 0 1 1 1 2 1 1 2 1 4 4 4 5 4 2 2 4 4 3 3 2 2 1 4 4 2 1 2 1 1 2 3 1 2 4 3 3 3 4 6 8 7 6 7 7 4 4 5
2 2 2 14 15 3 5 3 1 2 3 2 2 2 2 1 1 1 1 2 2 1 1 1 0 0 0 1 1 1 1 0 1 0 1 1 0 0 0 1 2 0 1 1 1 2 2 0 1 3 4 5 6 5 5 4 4 3 2 4 3 3 4 1 1 2 1 1 2 2 3 3 3 3 3 4 5 6 5 6 7 6 6 8 5 3 4 6
2 0 3 11 16 10 4 3 5 3 1 1 3 3 3 2 0 1 1 0 1 1 1 1 1 1 1 0 1 2 1 0 1 2 2 0 2 1 1 2 2 0 1 3 2 1 1 1 2 2 0 2 3 3 3 3 2 2 2 6 6 5 5 1 1 3 0 2 3 2 3 2 3 2 4 6 7 8 6 6 7 6 7 8 5 5 6 8
2 2 2 6 10 9 3 1 4 4 2 2 2 2 2 2 1 1 1 1 1 1 1 1 1 0 2 3 3 3 2 1 1 2 3 1 3 2 1 2 1 1 3 4 1 2 2 1 2 4 5 4 4 4 4 2 1 2 3 7 7 5 4 3 3 2 1 0 3 1 2 2 2 1 6 7 8 8 7 8 9 9 10 8 5 6 8 8
2 2 2 3 4 4 3 3 4 3 2 3 2 1 2 2 3 2 1 0 0 0 0 1 1 2 2 3 3 2 3 3 2 1 1 1 3 4 2 1 1 2 4 2 1 3 3 3 2 2 2 3 3 2 2 3 4 3 3 6 7 7 6 7 4 0 2 3 3 3 1 4 3 1 5 7 8 8 8 9 10 11 10 6 5 7 9 9
3 2 1 0 0 1 3 4 3 4 4 3 2 1 3 3 4 2 1 1 1 1 1 1 3 3 0 1 1 1 3 4 3 1 1 1 3 4 4 2 1 4 4 2 2 2 5 1 2 1 3 5 3 3 5 8 6 4 5 5 7 8 8 7 3 0 3 2 3 2 3 4 2 2 5 7 8 8 8 9 9 10 8 5 6 8 9 10
2 2 1 2 2 2 0 2 2 5 5 3 2 2 2 3 3 1 2 2 3 3 2 1 4 5 2 1 2 0 3 3 3 3 1 2 3 3 4 2 2 4 4 4 3 1 3 1 2 2 4 6 5 5 5 7 6 5 7 6 5 5 6 5 1 2 2 2 3 1 5 5 1 2 5 7 7 7 7 8 10 10 7 5 7 9 9 11
2 2 1 3 3 1 1 2 3 4 3 3 2 2 1 1 2 2 1 1 2 3 3 2 6 6 3 0 3 1 2 1 1 3 1 2 3 1 1 1 2 5 6 4 3 2 2 2 1 3 3 3 4 5 6 6 7 6 6 6 5 4 5 4 3 3 3 2 2 3 5 4 1 4 6 7 7 7 7 9 11 8 5 5 8 9 10 12
3 2 2 4 3 3 2 2 3 4 3 3 1 1 1 0 1 2 1 0 0 1 2 3 5 4 3 3 4 3 3 2 1 2 3 2 0 0 1 0 1 4 6 3 3 4 4 3 2 5 3 2 1 3 3 4 5 5 6 7 6 4 4 3 2 1 1 3 5 5 5 3 3 6 8 7 7 8 8 11 11 6 5 7 8 9 11 12
2 1 2 5 3 3 2 2 3 4 1 2 1 1 1 2 2 0 0 1 1 0 1 0 1 2 3 4 4 3 2 1 1 1 2 3 2 2 2 2 2 2 3 2 2 2 2 2 3 4 2 2 2 2 2 1 3 3 4 5 5 1 3 5 4 2 1 1 2 3 3 3 6 8 8 8 8 8 8 10 9 4 5 7 7 10 13 12
Wind_Direction
359 356 350 344 334 328 326 325 323 320 321 321 323 329 338 344 341 335 319 308 306 308 313 317 325 333 337 333 325 318 317 323 324 311 295 280 284 308 319 321 323 324 324 324 332 333 333 344 351 356 9 132 30 320 176 34 101 86 107 164 226 196 203 191 186 197 172 239 230 209 183 170 210 226 181 62 148 240 266 265 263 299 18 76 285 305 151 157
355 353 349 345 334 325 318 316 317 319 321 319 323 330 348 350 346 346 336 319 305 303 311 315 323 334 342 342 335 334 331 327 324 307 268 277 300 314 318 324 326 327 331 333 345 2 5 344 341 359 20 62 331 338 3 307 126 128 130 175 227 199 212 202 181 188 173 206 206 201 185 182 204 180 148 205 245 243 238 264 298 284 276 41 81 137 151 157
349 348 346 343 336 333 324 318 314 310 312 313 311 311 327 337 341 347 347 339 319 308 312 315 323 334 345 346 342 341 336 336 325 293 244 303 313 312 317 328 328 331 334 334 339 348 356 324 337 14 33 357 308 350 2 295 209 174 141 217 242 209 233 240 185 198 209 179 175 207 174 188 227 154 143 207 238 241 224 236 207 243 245 194 124 146 155 160
345 342 341 341 338 337 332 326 318 309 309 309 305 305 314 326 337 345 350 352 341 329 316 316 323 331 342 344 342 329 335 4 321 249 351 328 320 310 319 325 324 327 327 326 324 323 334 1 34 49 50 331 317 4 261 262 214 179 156 211 237 188 237 247 202 207 220 168 158 170 129 209 239 168 181 167 195 261 238 228 203 221 228 182 161 164 162 164
347 342 340 340 340 338 335 330 322 318 314 311 309 308 315 324 332 340 347 350 345 337 321 317 322 328 336 342 341 320 348 28 294 247 334 324 323 315 320 321 316 321 327 326 315 321 44 56 67 53 51 309 328 19 255 256 121 188 216 213 210 147 221 252 210 199 184 132 116 122 150 214 187 159 205 162 191 242 226 225 208 219 221 172 169 169 165 169
357 352 347 343 343 340 337 334 330 328 323 321 319 313 318 322 325 335 341 345 342 333 320 313 318 325 332 341 339 323 26 20 254 267 317 318 330 320 322 320 311 319 321 315 316 80 91 53 52 57 56 353 288 215 256 304 79 221 268 268 234 174 219 259 193 197 156 123 145 167 201 184 121 267 223 176 219 229 199 213 206 230 220 155 156 159 168 177
7 3 358 351 349 345 343 343 339 338 334 331 326 321 321 319 321 327 338 351 349 340 326 314 319 325 334 342 338 13 76 255 257 306 309 322 337 323 326 319 314 318 310 312 345 114 94 57 46 152 96 1 245 221 262 326 32 204 263 298 283 197 223 254 201 187 151 163 207 185 173 150 182 245 31 201 237 247 247 218 154 238 154 140 150 165 177 181
7 5 1 355 350 348 346 344 343 341 338 335 330 327 321 318 316 316 331 350 353 348 335 323 323 328 339 348 350 12 359 256 270 313 310 326 321 330 341 323 321 318 289 24 6 159 121 83 159 153 99 285 201 212 292 344 6 205 234 278 321 234 255 290 336 326 182 212 247 106 253 239 207 208 313 249 250 275 271 223 87 83 120 140 158 174 181 182
4 1 357 352 347 345 343 340 340 338 335 331 327 325 319 317 311 306 310 327 341 343 339 331 325 335 343 1 71 10 299 238 336 318 324 334 302 333 353 353 352 331 142 37 41 162 166 165 190 168 169 215 180 225 335 38 272 223 218 268 310 303 309 321 283 258 245 253 130 160 269 274 258 259 286 276 283 315 317 76 84 104 134 166 171 179 182 183
359 356 351 347 344 342 340 337 336 333 330 325 321 319 315 312 307 299 295 305 318 325 333 331 323 342 345 11 61 2 274 336 336 326 339 335 314 296 317 8 29 23 104 55 97 145 156 185 178 144 156 162 166 207 130 158 201 210 214 268 271 295 314 264 225 267 266 261 183 187 259 288 329 310 267 316 344 355 28 33 27 118 152 194 179 185 182 181
357 355 352 349 347 342 337 333 330 327 323 318 314 311 306 304 300 296 291 293 300 308 319 322 321 338 345 47 90 225 266 336 330 345 345 332 327 290 269 319 19 28 33 55 121 150 150 193 161 115 148 185 167 185 215 194 177 192 314 303 295 317 309 235 229 261 196 243 186 167 256 298 344 289 278 335 338 350 27 22 13 41 19 20 34 32 46 32
359 357 354 349 342 336 333 328 324 321 317 312 308 304 301 299 296 293 289 287 291 296 304 313 318 330 356 51 157 222 278 323 323 353 344 335 330 289 265 277 316 13 359 31 15 243 122 203 152 145 226 176 157 294 211 194 143 20 42 324 303 347 330 277 254 240 175 192 182 151 324 306 252 232 346 338 325 349 29 32 24 31 19 44 61 54 49 40
359 355 349 342 338 334 332 328 324 320 314 310 305 304 303 300 298 294 290 285 283 285 292 302 303 318 20 344 242 233 277 310 319 346 342 338 332 288 253 260 278 331 314 337 340 321 232 233 161 174 206 123 189 235 106 61 70 295 36 34 308 352 331 287 348 131 161 168 168 132 317 284 263 4 354 341 345 8 25 21 18 23 20 41 59 61 53 43
354 349 342 340 338 335 334 331 329 324 318 314 310 310 307 305 305 300 297 290 277 274 282 294 295 312 72 265 265 237 275 306 314 333 339 339 346 316 219 242 281 295 289 295 317 324 292 238 150 130 66 99 210 155 49 8 17 313 331 30 355 344 288 293 357 121 150 127 56 108 195 272 294 32 357 342 359 25 33 16 16 25 33 50 58 64 59 48
353 347 344 343 341 338 338 336 335 330 324 320 317 314 310 311 310 306 307 295 273 264 270 285 281 69 66 287 274 248 282 304 314 331 338 338 351 348 265 293 279 268 294 290 278 280 289 160 125 95 281 8 48 72 10 347 6 24 313 312 345 196 271 310 339 127 136 38 44 97 197 274 332 22 353 347 357 41 51 30 32 39 49 61 61 67 69 61
355 351 348 346 345 343 341 339 338 333 328 326 322 316 313 314 313 308 306 289 262 252 260 285 223 123 66 295 293 303 288 297 320 332 330 326 336 333 320 315 286 270 293 271 218 220 114 103 84 87 173 19 67 91 34 7 342 357 108 254 280 200 287 321 343 26 41 55 23 55 219 266 17 11 357 360 10 53 61 44 48 52 55 62 64 68 70 66
355 352 349 347 346 345 343 342 340 334 330 329 326 322 320 320 318 312 344 21 254 241 213 175 146 106 8 285 315 319 301 303 316 323 324 322 323 327 329 326 332 345 354 68 123 158 77 69 43 323 56 42 93 91 42 340 307 325 30 229 253 219 246 304 321 350 29 71 1 17 243 299 5 5 8 12 27 63 65 53 57 60 61 63 66 67 65 67
353 349 347 345 344 344 343 342 340 334 330 332 331 329 327 327 340 64 68 17 334 71 108 163 62 73 299 316 331 302 305 307 310 314 322 333 324 325 327 326 351 354 28 45 53 122 3 24 67 4 10 8 54 88 135 237 213 231 252 234 282 283 228 252 273 315 23 52 346 9 6 355 4 6 16 15 34 65 65 62 65 63 66 67 66 68 67 67
349 347 344 342 341 341 340 339 338 332 329 336 336 331 330 347 22 87 42 21 46 113 112 275 351 156 251 293 303 307 311 305 309 315 341 347 330 324 331 4 8 23 62 48 316 22 84 34 48 117 265 253 194 157 187 209 186 196 217 193 245 276 259 244 247 285 6 64 21 32 40 20 12 10 15 10 37 64 63 66 66 62 66 66 66 68 67 68
345 344 342 340 339 338 337 336 333 328 331 340 338 334 347 11 7 348 345 17 139 181 222 231 208 240 287 307 315 327 326 308 318 6 11 351 339 349 41 19 23 42 78 176 242 2 85 95 249 218 219 223 213 199 184 173 162 164 188 205 246 249 271 275 267 306 317 99 33 60 70 39 22 16 10 8 42 55 57 64 64 64 66 64 68 67 65 68
342 341 339 338 338 336 335 333 328 328 338 342 343 355 105 136 36 312 319 325 260 206 287 259 215 261 283 292 324 346 349 324 353 35 12 353 354 26 331 16 43 20 329 252 250 1 63 168 242 229 226 221 201 187 142 118 133 133 197 235 275 237 257 278 263 312 316 105 59 79 74 44 28 28 16 25 49 45 42 65 69 68 70 67 68 66 64 65
339 337 337 337 338 336 334 332 328 332 345 348 17 82 122 144 136 221 302 308 285 263 287 289 302 293 286 283 327 6 45 2 345 346 3 358 8 18 309 44 74 269 314 359 334 357 10 248 262 260 223 137 87 115 117 110 131 130 155 195 277 257 276 300 332 330 346 91 112 90 79 54 26 38 34 34 51 47 34 60 69 70 75 69 67 68 65 62
337 336 335 336 339 337 334 333 326 340 2 25 74 98 115 130 138 148 105 86 295 307 340 329 32 304 316 348 357 19 39 22 320 305 353 2 4 39 55 64 70 274 339 5 185 293 291 251 272 282 149 119 69 65 100 89 71 168 171 168 259 268 292 284 305 329 360 65 126 108 89 67 17 36 44 28 39 57 46 60 62 61 74 71 69 67 60 58
336 336 335 335 340 340 335 328 326 356 21 59 77 101 130 142 147 145 95 73 306 302 276 235 182 214 281 313 346 24 61 177 228 292 351 15 351 26 105 146 83 48 303 230 162 190 244 248 270 37 71 119 126 43 108 151 301 273 201 193 227 248 210 217 273 316 17 44 126 116 89 53 15 32 42 11 23 54 44 61 64 51 59 65 60 54 53 55
338 337 335 336 341 343 337 320 345 5 20 64 70 100 131 147 173 161 96 57 321 304 306 249 198 184 257 306 323 317 177 271 234 271 344 22 14 344 15 170 87 266 257 185 136 230 263 276 331 69 45 68 125 253 213 175 237 305 237 205 197 177 162 160 347 20 58 57 178 132 90 15 9 33 38 355 33 54 24 50 64 45 41 46 48 48 47 48
340 340 339 338 342 346 342 320 352 357 2 50 50 83 129 144 179 167 91 57 337 294 333 257 178 341 312 332 320 249 86 332 267 287 5 27 14 100 58 293 21 282 222 185 162 250 274 344 35 110 97 68 79 270 243 160 129 306 259 181 150 130 122 123 76 66 99 217 215 143 151 150 61 40 26 357 61 62 29 45 50 38 42 45 48 50 43 39
340 341 343 340 344 351 353 321 336 346 13 350 348 335 178 146 136 165 64 37 357 275 344 282 262 28 323 321 342 90 57 311 323 20 27 18 339 61 61 295 303 299 209 100 343 270 233 357 23 60 76 64 44 291 231 139 119 233 233 135 124 113 144 165 143 153 208 236 320 351 132 129 129 145 168 28 78 68 49 45 35 35 47 50 51 47 41 38
339 339 343 343 347 356 5 358 341 358 21 328 344 34 136 146 157 139 82 50 317 354 57 289 302 38 326 342 24 70 284 314 43 305 343 30 352 23 25 259 192 244 321 107 258 268 228 354 359 65 58 34 252 238 182 132 116 240 203 137 115 121 187 164 144 170 240 25 304 285 136 114 119 165 185 67 88 91 72 50 36 42 48 51 50 41 39 40
338 338 342 346 349 355 8 28 14 9 347 345 8 19 136 134 78 70 76 102 291 23 164 300 9 313 340 6 17 16 338 359 58 284 332 49 25 40 64 219 152 179 322 117 214 254 354 255 223 117 99 251 248 246 175 154 249 227 138 104 47 62 79 93 114 133 56 47 240 245 154 117 128 182 191 98 112 141 106 65 44 50 54 52 46 36 34 37
338 337 340 345 353 357 358 25 15 5 339 344 308 273 136 85 64 65 50 244 307 335 250 15 4 325 9 23 345 349 24 354 321 325 355 32 3 23 86 173 102 115 335 17 207 249 314 295 197 107 175 221 240 270 179 178 247 134 105 60 35 39 40 46 67 93 70 296 252 254 136 103 129 193 185 174 181 156 125 88 49 42 50 50 42 34 30 37
338 337 336 341 358 10 9 343 356 355 339 334 281 153 94 35 62 87 186 264 291 325 5 19 344 5 31 37 321 340 12 329 329 8 12 5 0 9 31 29 45 56 6 5 336 300 346 3 271 292 279 153 54 14 137 13 15 85 76 45 33 349 17 28 355 44 102 258 269 258 100 89 110 169 79 343 358 87 108 97 68 47 44 46 40 31 27 43
338 334 331 338 5 15 12 344 345 353 344 344 125 88 79 31 22 103 281 320 334 324 2 332 322 7 10 7 330 325 339 332 360 49 44 23 31 22 30 34 20 16 358 338 328 333 350 279 299 326 323 77 65 4 347 5 32 54 58 60 45 341 6 355 314 340 212 242 245 228 45 72 86 64 50 37 45 74 95 99 87 66 54 52 39 23 25 52
338 335 333 352 19 9 2 350 349 355 345 47 108 58 72 74 317 243 286 326 343 324 347 295 322 347 337 353 350 322 331 340 4 39 82 80 64 37 2 10 55 31 331 286 341 353 336 303 332 8 336 32 79 66 338 338 10 13 93 114 85 65 46 307 277 278 270 247 207 349 24 90 116 69 55 66 68 83 101 106 94 72 66 62 41 20 26 55
342 350 10 32 23 359 355 353 349 347 342 104 92 51 64 76 245 240 301 277 284 333 1 13 327 340 24 29 332 329 10 343 353 21 7 31 50 11 337 348 14 52 30 349 7 34 344 300 325 34 303 5 54 131 159 166 347 317 176 132 128 152 146 253 238 220 254 260 305 337 24 147 155 125 104 99 87 81 92 100 85 68 67 69 44 22 28 52
352 25 56 40 18 358 351 349 342 340 342 87 63 64 103 237 255 189 268 265 301 328 319 345 10 13 6 335 323 4 50 317 343 29 22 33 63 6 346 334 344 31 64 17 319 108 131 261 272 301 282 46 37 262 121 87 39 260 161 96 84 181 145 176 195 180 195 282 318 343 64 46 110 111 124 125 94 66 59 61 60 54 51 53 33 20 25 44
2 69 65 33 12 359 352 343 336 337 6 86 61 61 168 218 238 175 222 279 345 317 322 350 39 45 342 317 333 3 28 322 337 23 27 48 119 326 349 285 315 23 63 105 282 344 30 280 291 327 319 72 109 245 16 47 186 86 84 160 237 179 116 106 248 43 79 89 280 137 114 90 111 133 152 94 70 50 41 33 33 35 34 36 26 15 19 40
21 110 69 23 7 358 350 340 334 339 47 84 82 124 218 213 151 175 224 318 302 48 37 8 359 20 333 313 315 329 347 335 343 21 12 8 42 9 354 308 314 40 33 202 256 259 136 277 298 356 272 298 161 177 7 14 122 85 252 224 228 96 92 100 149 1 33 200 256 117 138 167 169 173 112 47 39 30 27 19 18 22 28 33 22 6 13 48
52 130 70 14 2 354 349 342 335 359 70 71 79 172 214 231 88 189 202 13 277 54 70 64 294 7 64 289 297 305 335 346 349 17 17 344 9 75 49 321 296 85 1 331 293 271 124 282 301 301 187 300 342 70 2 335 35 95 206 212 87 101 272 15 89 329 341 259 282 344 127 176 181 183 75 41 34 25 17 12 13 14 25 33 13 354 13 55
64 84 21 358 354 352 351 345 347 49 70 65 90 193 229 287 279 238 219 87 106 85 77 224 292 10 55 182 277 302 345 5 343 9 52 26 354 77 91 340 292 347 351 351 201 256 78 165 289 277 222 309 352 52 4 321 342 15 18 348 37 141 174 210 152 175 214 248 267 337 336 206 220 117 103 72 50 34 15 7 8 6 25 32 1 348 18 47
72 53 298 346 350 345 348 9 34 54 66 91 166 189 344 299 276 294 289 329 88 95 57 204 192 355 319 309 324 308 359 31 328 352 21 353 350 37 74 44 303 315 329 3 118 332 3 123 253 286 328 351 349 19 29 303 337 352 19 6 340 332 322 296 42 100 137 191 195 212 263 220 67 70 102 92 70 49 22 360 356 357 29 27 355 349 25 27
73 41 281 341 345 335 352 43 41 59 89 100 137 211 4 53 314 334 344 35 108 203 162 147 148 130 314 342 348 294 338 348 334 338 296 338 36 17 6 73 152 315 335 12 46 6 348 138 226 291 336 345 283 283 217 183 177 141 90 27 307 294 18 50 313 321 71 146 175 174 252 226 67 57 89 87 81 60 26 359 349 353 16 10 350 353 30 22
72 52 286 341 343 335 63 58 7 75 95 77 52 340 2 57 62 343 349 30 69 26 57 103 127 142 160 233 285 245 311 311 282 353 282 271 64 4 331 54 117 298 351 353 329 323 64 95 88 279 278 266 277 297 100 151 117 108 84 49 82 56 81 114 226 275 346 344 179 140 268 245 71 58 72 56 24 36 26 8 353 348 359 355 345 357 22 17
82 153 300 349 347 356 94 45 335 29 41 277 280 337 328 51 68 323 347 12 26 17 20 33 165 49 142 212 243 200 248 245 216 219 276 256 258 223 256 6 305 205 112 338 312 335 28 67 15 295 295 306 314 344 24 47 77 73 31 31 51 357 58 143 174 200 258 316 26 56 293 254 184 99 79 50 12 6 14 10 355 342 347 347 343 0 10 3
122 216 288 0 6 79 111 61 77 37 336 286 30 18 337 39 103 6 1 356 1 68 66 5 235 34 307 173 134 222 251 296 255 305 71 182 243 38 291 347 329 200 93 352 295 341 329 337 62 356 342 344 345 352 349 350 34 58 10 359 359 9 31 78 166 67 50 296 81 138 256 265 167 134 66 36 14 3 3 5 351 340 342 340 343 4 1 360
71 208 268 2 26 62 111 152 143 130 278 10 37 7 351 14 71 13 69 88 351 154 141 332 252 164 293 152 46 306 296 13 278 334 38 325 291 350 9 321 320 197 266 281 272 309 271 207 90 76 325 300 304 305 296 296 351 40 22 357 359 23 26 330 265 54 74 288 41 143 226 270 175 149 18 15 5 355 349 349 345 343 342 341 355 8 1 2
80 48 308 339 20 51 80 139 103 110 135 100 50 7 16 19 310 317 119 108 2 160 136 323 267 126 23 31 19 325 315 341 293 8 30 314 286 303 314 318 314 217 273 298 339 88 106 46 61 137 172 205 230 258 268 252 39 42 5 356 1 2 11 69 92 60 176 308 358 216 205 314 245 279 1 0 355 349 344 348 349 345 342 348 11 6 357 356
84 79 14 328 350 27 32 13 41 68 114 118 96 4 356 339 323 339 102 137 354 83 80 23 46 48 23 20 21 305 292 331 355 24 28 291 281 292 306 342 2 303 300 316 52 84 80 22 1 117 167 256 247 274 354 63 72 70 43 11 4 357 18 68 83 353 131 92 315 260 338 346 297 353 7 350 348 350 346 349 346 338 338 352 10 357 350 344
65 137 174 138 26 40 18 2 42 63 46 73 110 15 4 3 359 1 300 325 7 15 14 21 24 33 354 289 39 317 313 343 351 341 26 341 321 332 342 344 342 337 344 7 7 82 102 53 311 71 26 357 16 47 72 85 80 65 63 37 15 17 37 67 87 13 103 131 247 278 341 323 309 24 6 351 350 345 343 344 336 329 336 358 357 349 344 339
71 112 296 5 87 149 118 347 70 77 42 41 70 34 42 39 9 313 266 352 1 349 32 13 330 341 329 253 144 86 324 346 332 308 357 7 339 358 3 336 323 353 17 24 353 93 119 318 276 110 45 20 24 20 61 97 98 61 48 33 22 35 52 66 46 343 13 218 213 8 325 289 196 46 355 355 351 337 339 336 324 327 343 360 349 342 339 338
102 144 216 48 58 81 35 12 69 80 32 27 59 34 82 109 344 299 258 62 3 336 22 2 308 321 342 100 121 48 312 189 266 276 194 36 348 7 24 295 290 341 10 24 335 337 37 338 299 101 59 13 20 25 41 85 106 87 53 26 20 39 49 49 23 356 356 290 294 4 317 277 100 37 354 346 338 330 333 327 322 332 349 349 343 339 338 340
103 138 144 103 58 356 7 21 66 87 33 7 32 351 352 170 271 275 274 103 120 312 353 334 308 321 8 57 70 7 312 162 182 256 184 157 341 88 42 260 256 330 352 11 341 354 26 1 2 62 64 303 353 83 76 81 92 80 39 12 5 26 38 11 331 314 291 284 316 337 319 299 1 358 338 327 325 329 331 325 324 335 354 347 342 340 340 344
98 61 69 101 80 355 9 15 38 76 62 340 339 299 308 301 294 313 34 342 34 16 266 272 319 340 12 33 36 346 301 174 163 231 170 155 107 90 60 49 70 19 341 6 16 15 65 67 21 49 74 286 313 121 159 57 20 337 342 349 325 334 41 353 314 268 238 261 305 304 301 332 346 336 326 323 330 336 333 323 323 342 354 341 338 342 343 346